sat.trackr.live / text

‹ back to catalog

AII-BRAVO

NORAD 48270 · 2021-034C

PAYLOAD ACTIVE UNKNOWN

§ Identity

Operator
Country
LTU
Launch date
2021-04-29
Launch site
FRGUI
Launch vehicle
Mass (kg)
RCS (m²)

External: N2YO · Heavens-Above · Gunter

§ Orbital elements

Epoch: 2026-09-14T14:03:01.813824Z

Period
95.74 min
Inclination
97.5515°
Eccentricity
0.0004869
Mean motion
15.04046868 rev/d
Perigee alt
551.1 km
Apogee alt
557.8 km
Semi-major
6,932.6 km
B*
1.7546e-4
RAAN
310.4525°
Arg perigee
334.9884°
Mean anomaly
25.1105°
Rev number
29,305

§ Raw data

AII-BRAVO1 48270U 21034C   26257.58543766  .00002367  00000+0  17546-3 0  99902 48270  97.5515 310.4525 0004869 334.9884  25.1105 15.04046868293056

JSON: /api/v1/satellites/48270 · /tle

For live sub-satellite position, see the globe view (requires WebGL).

§ Visibility from observer

Set your observer location to see the next 7 days of passes ≥ 10°. The values pass through the URL so the page stays shareable.

No JS? Fill the form by hand. The geolocation button needs JavaScript.

§ Radio — SatNOGS DB

ModeDescriptionDownlinkUplink
FM Downlink 401.050 MHz
FM second telemetry frequency 402.001 MHz

2 transmitters · refreshed weekly from db.satnogs.org